Zurück zum Katalog

NanoDragon

AktivWissenschaftSSO
NORAD 49398·PAYLOAD·🇯🇵 Japan

Gestartet Nov 9, 2021 von Uchinoura Space Center

Loading…

Nächste Überflüge (nächste 24 Stunden)

TLE

AktuellSource: Space-Track

Epoche: Sep 14, 2026, 08:58 UTC

1 49398U 21102D   26257.37401938  .00007741  00000-0  25130-3 0  9999
2 49398  97.3115 298.4370 0006982 239.3899 120.6655 15.32199973267674

Verfolge NanoDragon in Echtzeit mit AllMySat

Download on the App Store